Station 46054 (LLNR 198.1) - WEST SANTA BARBARA 38 NM West of Santa Barbara, CA Image indicating link to RSS feed of recent meteorological observations for station 46054


Conditions at 46054 as of
(2:10 am PDT)
0910 GMT on 07/13/2024:
     

Click on the graph icon in the table below to see a time series plot of the last five days of that observation.

5-day plot - Wind Direction Wind Direction (WDIR):WNW ( 290 deg true )
5-day plot - Wind Speed Wind Speed (WSPD): 11.7 kts
5-day plot - Wind Gust Wind Gust (GST): 13.6 kts
5-day plot - Wave Height Wave Height (WVHT): 5.2 ft
5-day plot - Average Wave Period Average Period (APD): 6.9 sec
5-day plot - Mean Wave Direction Mean Wave Direction (MWD):WNW ( 293 deg true )
5-day plot - Atmospheric Pressure Atmospheric Pressure (PRES):29.88 in
5-day plot - Air Temperature Air Temperature (ATMP): 55.6 °F
5-day plot - Water Temperature Water Temperature (WTMP): 56.8 °F
5-day plot - Dew Point Dew Point (DEWP): 55.6 °F
5-day plot - Wind Speed at 10 Meters Wind Speed at 10 meters (WSPD10M): 11.7 kts
5-day plot - Wind Speed at 20 Meters Wind Speed at 20 meters (WSPD20M): 11.7 kts
5-day plot -  Wind Speed, Wind Gust and Atmospheric Pressure Combined plot of Wind Speed, Gust, and Air Pressure
Supplemental Measurements
Highest 1-minute Wind Speed
Time (PDT)5-day plot - 1-Minute Wind Speed WSPD 5-day plot - 1-Minute Wind Direction WDIR
2:07 am 11.7 kts-
Previous observations
TIME
(PDT)
5-day plot - Wind Direction
WDIR
 
5-day plot - Wind Speed
WSPD
kts
5-day plot - Wind Gust
GST
kts
5-day plot - Wave Height
WVHT
ft
5-day plot - Dominant Wave Period
DPD
sec
5-day plot - Average Wave Period
APD
sec
5-day plot - Mean Wave Direction
MWD
 
5-day plot - Atmospheric Pressure
PRES
in
5-day plot - Pressure Tendency
PTDY
in
5-day plot - Air Temperature
ATMP
°F
5-day plot - Water Temperature
WTMP
°F
5-day plot - Dew Point
DEWP
°F
5-day plot - Salinity
SAL
psu
5-day plot - Visibility
VIS
nmi
5-day plot - Tide (above MLLW)
TIDE
ft
2024-07-13 02:00 amWNW 9.7 13.6----29.88+0.03 55.8 56.8 55.8---
2024-07-13 01:50 amWNW 9.7 11.7 4.6 106.4WNW29.88- 55.8 56.8 55.8---
2024-07-13 01:40 amWNW 11.7 13.6----29.87- 55.8 56.8 55.8---
2024-07-13 01:30 amWNW 9.7 11.7----29.86- 55.6 56.8 55.6---
2024-07-13 01:20 amWNW 9.7 13.6 5.9 107.1WNW29.86- 55.6 56.8 55.6---
2024-07-13 01:10 amWNW 9.7 13.6 5.9-7.1WNW29.85- 55.6 56.7 55.6---
2024-07-13 01:00 amWNW 9.7 13.6----29.86+0.00 55.6 56.8 55.6---
2024-07-13 12:50 amWNW 11.7 13.6 5.2 96.9WNW29.86- 55.6 56.8 55.6---
2024-07-13 12:40 am NW 7.8 13.6 5.2-6.9WNW29.87- 55.8 56.8 55.8---
2024-07-13 12:30 amWNW 11.7 15.5----29.86- 55.8 56.8 55.8---
2024-07-13 12:20 amWNW 11.7 15.5 5.6 97.0WNW29.85- 55.8 56.8 55.8---
2024-07-13 12:10 amWNW 9.7 11.7 5.6-7.0WNW29.86- 55.8 56.7 55.8---
2024-07-13 12:00 amWNW 9.7 13.6----29.86+0.01 55.8 56.7 55.8---
2024-07-12 11:50 pmWNW 11.7 15.5 5.6 107.0WNW29.86- 55.8 56.7 55.8---
2024-07-12 11:40 pmWNW 9.7 13.6 5.6-7.0WNW29.85- 55.9 56.7 55.9---
2024-07-12 11:30 pm NW 7.8 11.7----29.85- 55.9 56.8 55.9---
2024-07-12 11:20 pm NW 5.8 9.7 5.6 107.1WNW29.85- 56.1 56.8 56.1---
2024-07-12 11:10 pmWNW 9.7 13.6----29.87- 55.9 56.8 55.9---
2024-07-12 11:00 pmWNW 9.7 13.6----29.85+0.00 55.9 56.8 55.9---
2024-07-12 10:50 pmWNW 7.8 11.7 5.2 107.0WNW29.87- 55.9 56.8 55.9---
2024-07-12 10:40 pmWNW 7.8 11.7----29.87- 55.9 56.8 55.9---
2024-07-12 10:30 pmWNW 7.8 9.7----29.87- 55.9 56.8 55.9---
2024-07-12 10:20 pmWNW 7.8 11.7 5.9 117.3WNW29.87- 56.1 56.8 56.1---
2024-07-12 10:10 pmWNW 9.7 13.6----29.86- 55.9 56.7 55.9---
2024-07-12 10:00 pmWNW 7.8 11.7----29.86+0.01 55.9 56.7 55.9---
2024-07-12 09:50 pm W 9.7 11.7 5.2 97.0WNW29.86- 55.9 56.7 55.8---
2024-07-12 09:40 pmWNW 9.7 11.7 5.2-7.0WNW29.85- 55.9 56.5 55.8---
2024-07-12 09:30 pmWNW 9.7 13.6----29.85- 55.9 56.5 55.8---
2024-07-12 09:20 pmWNW 7.8 11.7 5.9 107.5WNW29.85- 55.9 56.5 55.8---
2024-07-12 09:10 pmWNW 9.7 13.6 5.9-7.5WNW29.85- 55.9 56.7 55.8---
2024-07-12 09:00 pmWNW 9.7 11.7----29.85+0.00 55.8 56.7 55.6---
2024-07-12 08:50 pmWNW 9.7 11.7 5.6 107.1WNW29.86- 55.8 56.7 55.6---
2024-07-12 08:40 pmWNW 7.8 11.7 5.6-7.1WNW29.85- 55.9 56.7 55.8---
2024-07-12 08:30 pm W 9.7 13.6----29.85- 55.9 56.5 55.8---
2024-07-12 08:20 pmWNW 7.8 11.7 5.2 107.0WNW29.85- 55.9 56.7 55.8---
2024-07-12 08:10 pmWNW 7.8 9.7 5.2-7.0WNW29.86- 55.9 56.7 55.8---
2024-07-12 08:00 pmWNW 7.8 11.7----29.85+0.03 55.9 56.7 55.8---
2024-07-12 07:50 pm NW 7.8 11.7 5.6 107.2WNW29.85- 55.9 56.7 55.8---
2024-07-12 07:40 pmWNW 7.8 11.7 5.6-7.2WNW29.85- 55.9 56.8 55.8---
2024-07-12 07:30 pmWNW 7.8 11.7----29.85- 56.1 56.8 55.9---
2024-07-12 07:20 pmWNW 9.7 11.7 5.2 107.2WNW29.85- 56.1 56.8 55.8---
2024-07-12 07:10 pmWNW 9.7 11.7 5.2-7.2WNW29.84- 56.3 56.8 55.9---
2024-07-12 07:00 pmWNW 7.8 9.7----29.84-0.01 56.5 57.0 56.1---
2024-07-12 06:50 pmWNW 9.7 13.6 5.2 107.4WNW29.84- 56.3 57.0 55.9---
2024-07-12 06:40 pmWNW 9.7 11.7 5.2-7.4WNW29.85- 56.5 57.0 56.1---
2024-07-12 06:30 pmWNW 9.7 13.6----29.84- 56.5 57.0 56.1---
2024-07-12 06:20 pm W 9.7 11.7 4.9 107.0WNW29.84- 56.5 57.0 55.9---
2024-07-12 06:10 pm W 9.7 11.7 4.9-7.0WNW29.84- 56.5 57.2 55.8---
2024-07-12 06:00 pmWNW 9.7 11.7----29.84-0.03 56.5 57.0 55.8---
2024-07-12 05:50 pmWNW 9.7 11.7 4.9 107.4WNW29.85- 56.5 57.0 55.8---
2024-07-12 05:40 pm NW 9.7 15.5----29.85- 56.7 56.8 55.9---
2024-07-12 05:30 pmWNW 11.7 13.6----29.83- 56.7 57.0 55.9---
2024-07-12 05:20 pmWNW 11.7 13.6 4.9 107.3WNW29.83- 56.7 57.2 55.9---
2024-07-12 05:10 pmWNW 13.6 17.5 4.9-7.3WNW29.82-- 57.2----
2024-07-12 05:00 pmWNW 13.6 17.5----29.82-0.06 56.8 57.4 56.1---
2024-07-12 04:50 pmWNW 11.7 15.5 5.2 107.8WNW29.83- 56.8 57.7 56.1---
2024-07-12 04:40 pmWNW 11.7 15.5----29.83- 57.0 58.1 56.3---
2024-07-12 04:20 pmWNW 9.7 13.6 5.6 107.7WNW29.85- 57.0 57.9 56.3---
2024-07-12 04:10 pm W 9.7 13.6 5.6-7.7WNW29.85- 56.8 57.4 56.1---
2024-07-12 04:00 pm W 9.7 11.7----29.85-0.03 57.0 57.6 56.3---
2024-07-12 03:50 pm W 7.8 11.7 5.6 107.6WNW29.86- 56.8 57.7 56.1---
2024-07-12 03:40 pmWNW 11.7 15.5 5.6-7.6WNW29.84- 56.7 57.7 55.9---
2024-07-12 03:30 pmWNW 9.7 13.6----29.85- 56.7 57.2 55.9---
2024-07-12 03:20 pmWNW 7.8 9.7 4.9 97.4WNW29.86- 56.7 57.0 55.9---
2024-07-12 03:10 pmWNW 7.8 9.7 4.9-7.4WNW29.87- 56.5 57.0 55.8---
2024-07-12 03:00 pmWNW 7.8 9.7----29.87-0.03 56.5 57.0 55.8---
2024-07-12 02:50 pmWNW 7.8 9.7 4.9 97.1WNW29.88- 56.7 56.8 55.9---
2024-07-12 02:40 pmWNW 7.8 9.7 4.9-7.1WNW29.88- 56.7 56.7 55.9---
2024-07-12 02:30 pm W 5.8 9.7----29.88- 56.7 56.8 55.9---
2024-07-12 02:20 pm W 7.8 9.7 5.2 97.5WNW29.88- 56.5 56.5 55.8---
2024-07-12 02:10 pm W 5.8 9.7 5.2-7.5WNW29.88- 56.3 56.7 55.6---
2024-07-12 02:00 pm W 7.8 9.7----29.88-0.04 56.3 56.5 55.8---
2024-07-12 01:50 pm W 7.8 9.7 4.6 97.1WNW29.87- 56.5 56.7 56.1---
2024-07-12 01:40 pm W 7.8 9.7----29.88- 56.5 56.5 56.1---
2024-07-12 01:30 pm W 7.8 9.7----29.88- 56.3 55.8 56.1---
2024-07-12 01:20 pm W 5.8 9.7 4.9 97.3WNW29.88- 56.3 55.9 56.1---
2024-07-12 01:10 pm W 7.8 9.7 4.9-7.3WNW29.89- 56.3 56.1 56.1---
2024-07-12 01:00 pm W 7.8 9.7----29.88-0.03 56.5 56.3 56.3---
2024-07-12 12:50 pmWNW 5.8 7.8 4.6 97.3WNW29.88- 56.5 55.8 56.3---
2024-07-12 12:40 pm W 5.8 7.8 4.6-7.3WNW29.89- 56.5 55.6 56.3---
2024-07-12 12:30 pm W 5.8 7.8----29.88- 56.8 55.6 56.7---
2024-07-12 12:20 pmWNW 3.9 5.8 4.6 97.1WNW29.89- 56.8 56.1 56.7---
2024-07-12 12:10 pmWNW 3.9 5.8----29.90- 56.7 55.9 56.5---
2024-07-12 12:00 pm NW 3.9 5.8----29.90+0.00 56.5 55.8 56.3---
2024-07-12 11:50 am NW 3.9 5.8 4.6 107.4WNW29.90- 56.5 55.6 56.3---
2024-07-12 11:40 am NW 3.9 5.8 4.6-7.4WNW29.90- 56.5 55.2 56.3---
2024-07-12 11:30 am NW 3.9 3.9----29.91- 56.7 55.2 56.7---
2024-07-12 11:20 amWNW 1.9 3.9 3.9 97.0WNW29.91- 56.8 55.2 56.8---
2024-07-12 11:10 am- 0.0 1.9 3.9-7.0WNW29.92- 56.8 55.0 56.8---
2024-07-12 11:00 am- 0.0 1.9----29.92+0.02 56.7 55.2 56.7---
2024-07-12 10:50 am- 0.0 1.9 4.6 107.3WNW29.93- 56.5 55.2 56.5---
2024-07-12 10:40 am S 1.9 3.9 4.6-7.3WNW29.93- 56.1 55.2 56.1---
2024-07-12 10:30 amSSW 1.9 3.9----29.92- 55.9 55.0 55.9---
2024-07-12 10:20 amSSW 1.9 5.8 3.9 97.0WNW29.92- 56.1 55.0 56.1---
2024-07-12 10:10 am- 0.0 3.9 3.9-7.0WNW29.91- 55.9 55.2 55.9---
2024-07-12 10:00 am W 1.9 5.8----29.91+0.03 55.6 55.2 55.6---
2024-07-12 09:50 amWSW 3.9 5.8 4.6 96.9WNW29.90- 55.4 55.2 55.4---
2024-07-12 09:40 am SW 3.9 3.9----29.91- 55.4 55.2 55.4---
2024-07-12 09:30 amSSW 3.9 5.8----29.91- 55.4 55.2 55.4---
2024-07-12 09:20 am SW 3.9 5.8 4.6 86.9WNW29.91- 55.4 55.0 55.4---
2024-07-12 09:10 am SW 1.9 3.9----29.90- 55.4 55.0 55.4---
2024-07-12 09:00 amSSW 1.9 3.9----29.90+0.03 55.4 55.0 55.4---
2024-07-12 08:50 amSSW 3.9 7.8 4.6 96.9WNW29.91- 55.2 55.0 55.2---
2024-07-12 08:40 amSSW 5.8 11.7 4.6-6.9WNW29.90- 55.2 55.0 55.2---
2024-07-12 08:30 am S 7.8 11.7----29.90- 55.4 55.0 55.4---
2024-07-12 08:20 am S 7.8 11.7 4.3 106.4WNW29.90- 55.6 55.0 55.6---
2024-07-12 08:10 amSSE 5.8 9.7 4.3-6.4WNW29.89- 55.4 55.0 55.4---
2024-07-12 08:00 am SE 9.7 13.6----29.90+0.10 55.2 54.9 55.2---
2024-07-12 07:50 am SE 5.8 9.7 4.6 96.7WNW29.89- 55.2 54.9 55.2---
2024-07-12 07:40 amESE 5.8 9.7----29.88- 55.2 54.9 55.2---
2024-07-12 07:30 amENE 5.8 13.6----29.87- 55.0 54.9 55.0---
2024-07-12 07:20 am N 5.8 13.6 4.6 86.7WNW29.89- 55.0 54.9 55.0---
2024-07-12 07:10 am E 5.8 13.6 4.6-6.7WNW29.88- 55.0 55.0 55.0---
2024-07-12 07:00 amENE 7.8 11.7----29.88+0.06 55.0 54.9 55.0---
2024-07-12 06:50 am NE 7.8 13.6 4.3 96.5WNW29.87- 55.6 54.9 55.6---
2024-07-12 06:40 am N 9.7 13.6 4.3-6.5WNW29.85- 56.1 54.9 56.1---
2024-07-12 06:30 amNNW 5.8 11.7----29.85- 55.6 54.9 55.6---
2024-07-12 06:20 amNNW 7.8 13.6 3.9 86.4WNW29.88- 55.2 54.9 55.2---
2024-07-12 06:10 am NW 7.8 9.7 3.9-6.4WNW29.87- 54.9 54.9 54.9---
2024-07-12 06:00 am NW 7.8 13.6----29.87+0.02 54.9 54.9 54.9---
2024-07-12 05:50 am NW 9.7 13.6 4.6 96.4WNW29.86- 54.7 54.9 54.7---
2024-07-12 05:40 amWNW 7.8 11.7----29.85- 54.9 54.9 54.9---
2024-07-12 05:30 am W 5.8 7.8----29.88- 55.0 55.0 55.0---
2024-07-12 05:20 amWNW 5.8 7.8 4.3 105.8 NW29.87- 55.2 55.0 55.2---
2024-07-12 05:10 amNNW 5.8 15.5 4.3-5.8 NW29.85- 55.4 55.0 55.4---
2024-07-12 05:00 amNNW 11.7 15.5----29.80+0.00 55.2 55.0 55.2---
2024-07-12 04:50 am NW 9.7 13.6 3.9 95.5WNW29.82- 55.2 55.0 55.2---
2024-07-12 04:40 am NW 9.7 11.7----29.82- 55.6 55.2 55.6---
2024-07-12 04:30 am NW 7.8 13.6----29.85- 55.8 55.2 55.8---
2024-07-12 04:20 amNNW 11.7 15.5 4.3 95.3WNW29.82- 55.6 55.2 55.6---
2024-07-12 04:10 amWNW 11.7 15.5----29.82- 55.0 55.2 55.0---
2024-07-12 04:00 am W 11.7 15.5----29.82-0.01 54.7 55.2 54.7---
2024-07-12 03:50 am W 9.7 11.7 4.3 95.4 W29.83- 54.9 55.2 54.9---
2024-07-12 03:40 am W 9.7 13.6 4.3-5.4 W29.85- 54.9 55.2 54.9---
2024-07-12 03:30 am W 9.7 11.7----29.84- 54.7 55.2 54.7---
2024-07-12 03:20 amWNW 13.6 15.5 4.3 85.2WNW29.81- 54.7 55.2 54.7---
2024-07-12 03:10 amWNW 11.7 15.5 4.3-5.2WNW29.82- 54.5 55.2 54.5---
2024-07-12 03:00 am W 11.7 13.6----29.85+0.04 54.7- 54.7---
2024-07-12 02:50 amWNW 11.7 15.5 4.6 95.5WNW29.83- 54.7 55.0 54.7---
2024-07-12 02:40 amWNW 11.7 15.5 4.6-5.5WNW29.83- 54.7 55.0 54.7---
2024-07-12 02:30 amWNW 9.7 13.6----29.83- 54.7 55.0 54.7---
2024-07-12 02:20 amWNW 9.7 17.5 4.9 105.6 W29.83- 54.7 55.0 54.7---
2024-07-12 02:10 amWNW 13.6 17.5 4.9-5.6 W29.81- 54.7 54.9 54.7---
2024-07-12 02:00 am NW 13.6 17.5----29.81-0.02 54.5 54.9 54.5---
2024-07-12 01:50 am NW 15.5 19.4 5.2 105.5WNW29.81- 54.5- 54.5---

Detailed Wave Summary
for 46054 as of (2:10 am PDT)
0910 GMT on 07/13/2024:

These wave data are displayed in rounded times.

     

Click on the graph icon in the table below to see a time series plot of the last five days of that observation.

5-day plot - Significant Wave Height Significant Wave Height (WVHT): 5.2 ft
5-day plot - Swell Height Swell Height (SwH): 4.9 ft
5-day plot - Swell Period Swell Period (SwP): 10.0 sec
5-day plot - Swell Direction Swell Direction (SwD):WNW
5-day plot - Wind Wave Height Wind Wave Height (WWH): 1.3 ft
5-day plot - Wind Wave Period Wind Wave Period (WWP): 3.6 sec
5-day plot - Wind Wave Direction Wind Wave Direction (WWD):WNW
5-day plot - Wave Steepness Wave Steepness (STEEPNESS): SWELL
5-day plot - Average Wave Period Average Wave Period (APD): 6.9 sec
Previous observations
TIME
(PDT)
5-day plot - Wave Height
WVHT
ft
5-day plot - Swell Height
SwH
ft
5-day plot - Swell Period
SwP
sec
5-day plot - Swell Direction
SwD
 
5-day plot - Wind Wave Height
WWH
ft
5-day plot - Wind Wave Period
WWP
sec
5-day plot - Wind Wave Direction
WWD
 
5-day plot - Wave Steepness
STEEPNESS
 
5-day plot - Average Wave Period
APD
sec
2024-07-13 01:40 am 4.6 4.6 10.0WNW 1.6 4.2 WNW SWELL 6.4
2024-07-13 01:10 am 5.9 5.6 10.0WNW 1.6 4.0 W SWELL 7.1
2024-07-13 12:40 am 5.2 4.9 9.1WNW 1.6 5.3 WNW AVERAGE 6.9
2024-07-13 12:10 am 5.6 5.2 9.1WNW 2.0 4.8 WNW AVERAGE 7.0
2024-07-12 11:40 pm 5.6 5.2 10.0WNW 2.0 4.2 WNW SWELL 7.0
2024-07-12 11:10 pm 5.6 5.2 10.0WNW 1.3 3.8 WNW SWELL 7.1
2024-07-12 10:40 pm 5.2 5.2 10.0WNW 1.3 4.0 WNW SWELL 7.0
2024-07-12 10:10 pm 5.9 5.6 10.8WNW 1.6 4.2 WNW SWELL 7.3
2024-07-12 09:40 pm 5.2 5.2 9.1WNW 1.6 4.5 WNW AVERAGE 7.0
2024-07-12 09:10 pm 5.9 5.6 10.0WNW 1.3 4.2 WNW SWELL 7.5
2024-07-12 08:40 pm 5.6 5.2 10.0WNW 1.3 4.0 W SWELL 7.1
2024-07-12 08:10 pm 5.2 5.2 10.0WNW 1.3 3.8 WNW SWELL 7.0
2024-07-12 07:40 pm 5.6 5.6 10.0WNW 1.3 4.2 W SWELL 7.2
2024-07-12 07:10 pm 5.2 4.9 10.0WNW 1.3 4.3 W SWELL 7.2
2024-07-12 06:40 pm 5.2 4.9 10.0WNW 1.3 4.5 W SWELL 7.4
2024-07-12 06:10 pm 4.9 4.9 10.0WNW 1.3 4.5 W SWELL 7.0
2024-07-12 05:40 pm 4.9 4.9 10.0WNW 1.0 4.3 W SWELL 7.4
2024-07-12 05:10 pm 4.9 4.3 10.0WNW 2.3 6.7 W SWELL 7.3
2024-07-12 04:40 pm 5.2 4.9 10.0WNW 1.6 5.3 W SWELL 7.8
2024-07-12 04:10 pm 5.6 5.2 10.0WNW 1.0 4.5 W SWELL 7.7
2024-07-12 03:40 pm 5.6 5.6 10.0WNW 0.7 3.8 W SWELL 7.6
2024-07-12 03:10 pm 4.9 4.9 9.1WNW 0.7 3.6 W AVERAGE 7.4
2024-07-12 02:40 pm 4.9 4.9 9.1WNW 1.0 4.0 W AVERAGE 7.1
2024-07-12 02:10 pm 5.2 5.2 9.1WNW 1.0 4.0 W AVERAGE 7.5
2024-07-12 01:40 pm 4.6 4.3 9.1WNW 1.0 4.0 W SWELL 7.1
2024-07-12 01:10 pm 4.9 4.9 9.1WNW 0.7 3.8 WSW AVERAGE 7.3
2024-07-12 12:40 pm 4.6 4.6 9.1WNW 0.7 3.4 W SWELL 7.3
2024-07-12 12:10 pm 4.6 4.3 9.1WNW 0.7 3.7 W SWELL 7.1
2024-07-12 11:40 am 4.6 4.6 10.0WNW 1.0 3.6 WSW SWELL 7.4
2024-07-12 11:10 am 3.9 3.9 9.1WNW 1.0 4.0 W SWELL 7.0
2024-07-12 10:40 am 4.6 4.6 10.0WNW 0.7 3.8 WSW SWELL 7.3
2024-07-12 10:10 am 3.9 3.9 9.1WNW 1.0 3.8 W SWELL 7.0
2024-07-12 09:40 am 4.6 4.3 9.1WNW 1.0 3.8 W SWELL 6.9
2024-07-12 09:10 am 4.6 4.6 8.3WNW 1.0 4.0 WSW AVERAGE 6.9
2024-07-12 08:40 am 4.6 4.6 9.1WNW 1.0 4.0 WSW SWELL 6.9
2024-07-12 08:10 am 4.3 3.9 10.0WNW 1.0 3.8 WSW SWELL 6.4
2024-07-12 07:40 am 4.6 4.3 9.1WNW 1.0 2.9 N SWELL 6.7
2024-07-12 07:10 am 4.6 4.6 8.3WNW 1.3 3.8 WNW AVERAGE 6.7
2024-07-12 06:40 am 4.3 3.9 9.1WNW 1.3 4.0 W SWELL 6.5
2024-07-12 06:10 am 3.9 3.9 8.3WNW 1.3 3.6 W AVERAGE 6.4
2024-07-12 05:40 am 4.6 4.3 9.1WNW 1.3 3.4 W SWELL 6.4
2024-07-12 05:10 am 4.3 3.9 10.0 NW 1.6 4.0 WSW SWELL 5.8
2024-07-12 04:40 am 3.9 3.6 9.1WNW 2.0 4.3 W SWELL 5.5
2024-07-12 04:10 am 4.3 3.3 9.1WNW 2.6 4.5 W SWELL 5.3
2024-07-12 03:40 am 4.3 3.9 9.1 W 2.0 4.0 W SWELL 5.4
2024-07-12 03:10 am 4.3 3.0 8.3WNW 3.0 5.6 W AVERAGE 5.2
2024-07-12 02:40 am 4.6 3.9 9.1WNW 2.6 4.2 WNW SWELL 5.5
2024-07-12 02:10 am 4.9 4.3 10.0 W 2.3 4.2 WNW SWELL 5.6

Plot of wave energy versus frequency (and period)